This is the latest recevied weather packets stored in our database for station/object SV6AYW-10. If no packets are shown the sender has not sent any weather packets the latest 10 day(s).
| Time | Temp. | Humidity | Pressure | Rain* | Wind** | Luminosity | Snow |
|---|---|---|---|---|---|---|---|
| 1777753015 | 21.11° C | 45% | 1018.1 hPa | - | - | - | - |
| 1777751215 | 21.11° C | 47% | 1017.8 hPa | - | - | - | - |
| 1777749421 | 20.56° C | 46% | 1017.5 hPa | - | - | - | - |
| 1777747620 | 20.56° C | 42% | 1017.2 hPa | - | - | - | - |
| 1777745820 | 20.56° C | 41% | 1017 hPa | - | - | - | - |
| 1777744920 | 20.56° C | 41% | 1016.7 hPa | - | - | - | - |
| 1777742219 | 20.56° C | 40% | 1016.5 hPa | - | - | - | - |
| 1777740419 | 20.56° C | 39% | 1016.7 hPa | - | - | - | - |
| 1777739519 | 20.56° C | 39% | 1016.7 hPa | - | - | - | - |
| 1777738618 | 21.11° C | 38% | 1016.7 hPa | - | - | - | - |
| 1777736818 | 21.11° C | 40% | 1016.7 hPa | - | - | - | - |
| 1777735918 | 21.11° C | 40% | 1016.6 hPa | - | - | - | - |
| 1777735018 | 21.11° C | 40% | 1016.7 hPa | - | - | - | - |
| 1777734118 | 21.11° C | 41% | 1016.8 hPa | - | - | - | - |
| 1777732317 | 21.11° C | 41% | 1016.7 hPa | - | - | - | - |
| 1777731417 | 21.11° C | 41% | 1016.7 hPa | - | - | - | - |
| 1777730517 | 21.11° C | 42% | 1016.8 hPa | - | - | - | - |
| 1777729617 | 21.11° C | 42% | 1016.9 hPa | - | - | - | - |
| 1777728717 | 21.11° C | 42% | 1017 hPa | - | - | - | - |
| 1777727817 | 21.11° C | 44% | 1017 hPa | - | - | - | - |
| 1777726916 | 21.11° C | 40% | 1017.3 hPa | - | - | - | - |
| 1777725116 | 20.56° C | 41% | 1017.6 hPa | - | - | - | - |
| 1777722415 | 20.56° C | 39% | 1017.8 hPa | - | - | - | - |
| 1777721515 | 20.56° C | 40% | 1017.8 hPa | - | - | - | - |
| 1777720615 | 20.56° C | 40% | 1017.8 hPa | - | - | - | - |
* Rain since midnight (hover to see other rain measurements)
** Current wind speed in m/s (hover to see current wind gust speed)